| time (UTC) | temp C | wind direction | speed KPH | gust KPH | rain 1hr cm | rain 24hr cm | rain mn cm | humidity % | barometer mb |
| 20260902103007 | 12 | 55 | 0.0 | 4.8 | 0.00 | 0.00 | 0.00 | 79 | 1018.3 |
| 20260902101501 | 12 | 55 | 0.0 | 4.8 | 0.00 | 0.00 | 0.00 | 79 | 1018.6 |
| 20260902100002 | 13 | 47 | 0.0 | 6.4 | 0.00 | 0.00 | 0.00 | 79 | 1018.5 |
| 20260902094503 | 13 | 36 | 1.6 | 4.8 | 0.00 | 0.00 | 0.00 | 78 | 1018.6 |
| 20260902093117 | 13 | 44 | 0.0 | 4.8 | 0.00 | 0.00 | 0.00 | 78 | 1018.6 |
| 20260902091502 | 13 | 43 | 1.6 | 3.2 | 0.00 | 0.00 | 0.00 | 78 | 1018.7 |
| 20260902090002 | 13 | 30 | 0.0 | 6.4 | 0.00 | 0.00 | 0.00 | 78 | 1018.5 |
| 20260902084508 | 13 | 31 | 1.6 | 4.8 | 0.00 | 0.00 | 0.00 | 77 | 1018.5 |
| 20260902083002 | 13 | 98 | 0.0 | 6.4 | 0.00 | 0.00 | 0.00 | 77 | 1018.5 |
| 20260902081503 | 13 | 49 | 1.6 | 4.8 | 0.00 | 0.00 | 0.00 | 76 | 1018.3 |
| 20260902080002 | 13 | 68 | 1.6 | 4.8 | 0.00 | 0.00 | 0.00 | 75 | 1018.2 |
| 20260902074502 | 13 | 63 | 1.6 | 4.8 | 0.00 | 0.00 | 0.00 | 75 | 1018.1 |
| 20260902073003 | 13 | 87 | 1.6 | 4.8 | 0.00 | 0.00 | 0.00 | 74 | 1018.1 |
| 20260902071506 | 14 | 69 | 3.2 | 6.4 | 0.00 | 0.00 | 0.00 | 74 | 1018.1 |
| 20260902070003 | 14 | 114 | 1.6 | 6.4 | 0.00 | 0.00 | 0.00 | 73 | 1018.1 |
| 20260902064501 | 14 | 51 | 3.2 | 9.7 | 0.00 | 0.00 | 0.00 | 73 | 1018.2 |
| 20260902063002 | 14 | 88 | 1.6 | 6.4 | 0.00 | 0.00 | 0.00 | 72 | 1018.3 |
| 20260902061507 | 15 | 144 | 1.6 | 4.8 | 0.00 | 0.00 | 0.00 | 71 | 1018.4 |
| 20260902060103 | 15 | 37 | 1.6 | 9.7 | 0.00 | 0.00 | 0.00 | 70 | 1018.4 |
| 20260902054505 | 15 | 63 | 1.6 | 9.7 | 0.00 | 0.00 | 0.00 | 69 | 1018.3 |
| 20260902053002 | 15 | 81 | 1.6 | 4.8 | 0.00 | 0.00 | 0.00 | 69 | 1018.3 |
| 20260902051502 | 15 | 60 | 1.6 | 6.4 | 0.00 | 0.00 | 0.00 | 68 | 1018.3 |
| 20260902044502 | 15 | 138 | 1.6 | 3.2 | 0.00 | 0.00 | 0.00 | 64 | 1018.2 |
| 20260902043005 | 16 | 147 | 0.0 | 0.0 | 0.00 | 0.00 | 0.00 | 63 | 1018.1 |
| 20260902041502 | 16 | 141 | 0.0 | 1.6 | 0.00 | 0.00 | 0.00 | 62 | 1017.8 |
| 20260902040006 | 16 | 173 | 0.0 | 1.6 | 0.00 | 0.00 | 0.00 | 60 | 1017.6 |
| 20260902034616 | 16 | 160 | 0.0 | 3.2 | 0.00 | 0.00 | 0.00 | 59 | 1017.2 |
| 20260902033003 | 17 | 168 | 1.6 | 4.8 | 0.00 | 0.00 | 0.00 | 58 | 1017.2 |
| 20260902031503 | 17 | 157 | 0.0 | 4.8 | 0.00 | 0.00 | 0.00 | 57 | 1016.7 |
| 20260902024502 | 18 | 183 | 0.0 | 4.8 | 0.00 | 0.00 | 0.00 | 54 | 1016.2 |
| 20260902023002 | 18 | 206 | 1.6 | 8.0 | 0.00 | 0.00 | 0.00 | 52 | 1016.2 |
| 20260902021507 | 19 | 175 | 1.6 | 4.8 | 0.00 | 0.00 | 0.00 | 49 | 1015.9 |
| 20260902020003 | 20 | 170 | 0.0 | 4.8 | 0.00 | 0.00 | 0.00 | 48 | 1016.0 |
| 20260902014503 | 20 | 187 | 1.6 | 8.0 | 0.00 | 0.00 | 0.00 | 45 | 1015.8 |
| 20260902013003 | 20 | 143 | 1.6 | 4.8 | 0.00 | 0.00 | 0.00 | 45 | 1015.8 |
| 20260902011503 | 21 | 135 | 3.2 | 6.4 | 0.00 | 0.00 | 0.00 | 44 | 1015.8 |
| 20260902010105 | 21 | 183 | 1.6 | 4.8 | 0.00 | 0.00 | 0.00 | 42 | 1015.9 |
| 20260902004501 | 21 | 218 | 1.6 | 9.7 | 0.00 | 0.00 | 0.00 | 43 | 1015.8 |
| 20260902003104 | 21 | 100 | 1.6 | 6.4 | 0.00 | 0.00 | 0.00 | 44 | 1015.9 |
| 20260902001502 | 22 | 212 | 3.2 | 9.7 | 0.00 | 0.00 | 0.00 | 45 | 1015.9 |
| 20260902000006 | 21 | 172 | 1.6 | 11.3 | 0.00 | 0.00 | 0.00 | 45 | 1016.0 |
| 20260901234503 | 22 | 191 | 4.8 | 11.3 | 0.00 | 0.00 | 0.00 | 44 | 1016.0 |
| 20260901233002 | 22 | 148 | 1.6 | 9.7 | 0.00 | 0.00 | 0.00 | 45 | 1016.1 |
| 20260901231504 | 22 | 122 | 1.6 | 8.0 | 0.00 | 0.00 | 0.00 | 45 | 1016.1 |
| 20260901230006 | 22 | 21 | 1.6 | 6.4 | 0.00 | 0.00 | 0.00 | 45 | 1016.3 |
| 20260901224502 | 22 | 185 | 3.2 | 8.0 | 0.00 | 0.00 | 0.00 | 43 | 1016.4 |
| 20260901223003 | 22 | 181 | 3.2 | 8.0 | 0.00 | 0.00 | 0.00 | 45 | 1016.5 |
| 20260901221504 | 22 | 203 | 1.6 | 11.3 | 0.00 | 0.00 | 0.00 | 46 | 1016.6 |
| 20260901220010 | 22 | 196 | 3.2 | 8.0 | 0.00 | 0.00 | 0.00 | 47 | 1016.6 |
| 20260901214501 | 21 | 185 | 3.2 | 11.3 | 0.00 | 0.00 | 0.00 | 49 | 1016.7 |
| 20260901213001 | 21 | 224 | 3.2 | 8.0 | 0.00 | 0.00 | 0.00 | 48 | 1016.6 |
| 20260901211503 | 21 | 158 | 1.6 | 14.5 | 0.00 | 0.00 | 0.00 | 50 | 1016.8 |
| 20260901210002 | 21 | 172 | 4.8 | 11.3 | 0.00 | 0.00 | 0.00 | 52 | 1017.1 |
| 20260901203003 | 20 | 188 | 3.2 | 6.4 | 0.00 | 0.00 | 0.00 | 54 | 1017.5 |
| 20260901201502 | 20 | 189 | 3.2 | 6.4 | 0.00 | 0.00 | 0.00 | 55 | 1017.5 |
| 20260901200008 | 20 | 138 | 3.2 | 9.7 | 0.00 | 0.00 | 0.00 | 54 | 1017.6 |
| 20260901194501 | 19 | 161 | 3.2 | 6.4 | 0.00 | 0.00 | 0.00 | 56 | 1017.6 |
| 20260901193105 | 19 | 71 | 1.6 | 12.9 | 0.00 | 0.00 | 0.00 | 56 | 1017.6 |
| 20260901191503 | 19 | 63 | 3.2 | 9.7 | 0.00 | 0.00 | 0.00 | 56 | 1017.7 |
| 20260901190001 | 18 | 118 | 1.6 | 9.7 | 0.00 | 0.00 | 0.00 | 59 | 1017.8 |
| 20260901184606 | 18 | 187 | 1.6 | 14.5 | 0.00 | 0.00 | 0.00 | 60 | 1017.9 |
| 20260901183002 | 18 | 108 | 1.6 | 9.7 | 0.00 | 0.00 | 0.00 | 60 | 1017.9 |
| 20260901181603 | 17 | 123 | 3.2 | 12.9 | 0.00 | 0.00 | 0.00 | 60 | 1018.0 |
| 20260901180003 | 17 | 154 | 1.6 | 12.9 | 0.00 | 0.00 | 0.00 | 63 | 1017.8 |
| 20260901174503 | 16 | 126 | 1.6 | 11.3 | 0.00 | 0.00 | 0.00 | 66 | 1017.5 |
| 20260901173002 | 16 | 130 | 1.6 | 11.3 | 0.00 | 0.00 | 0.00 | 67 | 1017.8 |
| 20260901171502 | 15 | 129 | 1.6 | 8.0 | 0.00 | 0.00 | 0.00 | 68 | 1017.6 |
| 20260901170003 | 15 | 140 | 1.6 | 8.0 | 0.00 | 0.00 | 0.00 | 71 | 1017.5 |
| 20260901164502 | 15 | 291 | 1.6 | 6.4 | 0.00 | 0.00 | 0.00 | 72 | 1017.5 |
| 20260901163003 | 15 | 173 | 1.6 | 11.3 | 0.00 | 0.00 | 0.00 | 71 | 1017.4 |
| 20260901161504 | 15 | 66 | 3.2 | 9.7 | 0.00 | 0.00 | 0.00 | 71 | 1017.1 |
| 20260901160001 | 14 | 139 | 1.6 | 11.3 | 0.00 | 0.00 | 0.00 | 74 | 1016.9 |
| 20260901154603 | 14 | 137 | 1.6 | 12.9 | 0.00 | 0.00 | 0.00 | 74 | 1016.9 |
| 20260901153001 | 13 | 61 | 4.8 | 11.3 | 0.00 | 0.00 | 0.00 | 75 | 1016.6 |
| 20260901151503 | 13 | 52 | 4.8 | 14.5 | 0.00 | 0.00 | 0.00 | 77 | 1016.3 |
| 20260901150001 | 13 | 14 | 3.2 | 8.0 | 0.00 | 0.00 | 0.00 | 79 | 1016.3 |
| 20260901144500 | 13 | 92 | 3.2 | 11.3 | 0.00 | 0.00 | 0.00 | 81 | 1015.8 |
| 20260901143002 | 13 | 47 | 1.6 | 9.7 | 0.00 | 0.00 | 0.00 | 81 | 1015.5 |
| 20260901141601 | 13 | 68 | 3.2 | 9.7 | 0.00 | 0.00 | 0.00 | 82 | 1015.4 |
| 20260901140108 | 12 | 56 | 4.8 | 14.5 | 0.00 | 0.00 | 0.00 | 82 | 1015.3 |
| 20260901140002 | 12 | 53 | 3.2 | 14.5 | 0.00 | 0.00 | 0.00 | 82 | 1015.3 |
| 20260901134701 | 12 | 114 | 3.2 | 9.7 | 0.00 | 0.00 | 0.00 | 83 | 1015.3 |
| 20260901133107 | 12 | 27 | 4.8 | 14.5 | 0.00 | 0.00 | 0.00 | 83 | 1015.1 |
| 20260901133002 | 12 | 69 | 4.8 | 14.5 | 0.00 | 0.00 | 0.00 | 83 | 1015.1 |
| 20260901131600 | 12 | 66 | 3.2 | 12.9 | 0.00 | 0.00 | 0.00 | 83 | 1014.9 |
| 20260901131501 | 12 | 60 | 3.2 | 12.9 | 0.00 | 0.00 | 0.00 | 83 | 1015.0 |
| 20260901130002 | 12 | 146 | 3.2 | 11.3 | 0.00 | 0.00 | 0.00 | 83 | 1014.8 |
| 20260901124502 | 12 | 85 | 1.6 | 11.3 | 0.00 | 0.00 | 0.00 | 83 | 1014.9 |
| 20260901123004 | 12 | 21 | 4.8 | 14.5 | 0.00 | 0.00 | 0.00 | 83 | 1015.1 |
| 20260901121503 | 12 | 52 | 3.2 | 9.7 | 0.00 | 0.00 | 0.00 | 83 | 1015.1 |
| 20260901120002 | 12 | 52 | 1.6 | 9.7 | 0.00 | 0.00 | 0.00 | 84 | 1014.7 |
| 20260901114502 | 12 | 16 | 1.6 | 8.0 | 0.00 | 0.00 | 0.00 | 84 | 1014.6 |
| 20260901113003 | 12 | 152 | 0.0 | 4.8 | 0.00 | 0.00 | 0.00 | 85 | 1014.4 |
| 20260901111603 | 12 | 102 | 1.6 | 4.8 | 0.00 | 0.00 | 0.00 | 85 | 1014.3 |
| 20260901110100 | 12 | 20 | 3.2 | 8.0 | 0.00 | 0.00 | 0.00 | 85 | 1014.4 |
| 20260901110004 | 12 | 118 | 3.2 | 8.0 | 0.00 | 0.00 | 0.00 | 85 | 1014.4 |
| 20260901104609 | 12 | 351 | 3.2 | 12.9 | 0.00 | 0.00 | 0.00 | 84 | 1014.1 |